date,time,DOY,Ta_1_1_1,Pa_1_1_1,RH_1_1_1,LWin_1_1_1,LWout_1_1_1,SWin_1_1_1,SWout_1_1_1,PPFD_1_1_1,MWS_1_1_1,WD_1_1_1,SWC_1_1_1,Ts_1_1_1
[yyyy-mm-dd],[HH:MM],[ddd.ddd],[K],[Pa],[%],[W+1m-2],[W+1m-2],[W+1m-2],[W+1m-2],[µmol+1m-2s-1],[m+1s-1],[deg],[m+3m-3],[K]
2014-09-24,00:30,267.020,285.01233333333334,95715.133333333331,83.354666666666674,-3.9483333333333328,-9999.0,1.0146666666666664,-3.7606666666666668,0.0000000000000000,3.5000000000000004,167.63433333333333,0.30266666666666658,285.06166666666667
2014-09-24,01:00,267.041,284.69433333333330,95725.800000000003,84.974333333333334,-3.7383333333333328,-9999.0,0.99100000000000010,-3.7293333333333334,0.0000000000000000,3.5900000000000003,165.32333333333335,0.30033333333333334,284.95433333333330
2014-09-24,01:30,267.062,284.40366666666654,95711.000000000000,85.944000000000003,-3.4156666666666666,-9999.0,0.89766666666666628,-3.7736666666666676,0.0000000000000000,3.9199999999999995,164.39933333333332,0.29999999999999999,284.85499999999996
2014-09-24,02:00,267.083,284.12666666666678,95692.899999999994,86.620000000000019,-3.1896666666666671,-9999.0,0.95366666666666666,-3.7869999999999999,0.0000000000000000,3.8699999999999997,162.63366666666667,0.29999999999999999,284.75266666666670
2014-09-24,02:30,267.104,283.94600000000003,95677.300000000003,86.848666666666674,-2.8226666666666675,-9999.0,0.97599999999999987,-3.7493333333333334,0.0000000000000000,4.0299999999999994,160.77799999999999,0.30033333333333334,284.65966666666668
2014-09-24,03:00,267.124,283.77900000000017,95668.433333333334,86.557333333333361,-2.8426666666666671,-9999.0,1.0203333333333333,-3.6739999999999999,0.0000000000000000,3.8333333333333317,161.37733333333333,0.29999999999999999,284.57200000000006
2014-09-24,03:30,267.145,283.65333333333336,95666.666666666672,86.688333333333318,-2.8493333333333331,-9999.0,0.97566666666666657,-3.4936666666666674,0.0000000000000000,3.5833333333333330,161.36666666666667,0.29999999999999999,284.49600000000009
2014-09-24,04:00,267.166,283.53333333333336,95664.633333333331,86.645999999999987,-2.8830000000000000,-9999.0,0.93866666666666654,-3.3569999999999998,0.0000000000000000,3.6000000000000005,158.24400000000000,0.29999999999999999,284.41699999999997
2014-09-24,04:30,267.187,283.33700000000005,95676.566666666666,87.050333333333356,-2.4813333333333332,-9999.0,0.97833333333333339,-3.0629999999999997,0.0000000000000000,3.3866666666666676,154.84433333333334,0.29999999999999999,284.34033333333332
2014-09-24,05:00,267.208,283.46766666666667,95688.166666666672,85.529000000000011,-2.5923333333333334,-9999.0,0.91233333333333333,-2.6219999999999994,-2.00000000000000004E-003,3.3133333333333339,152.95600000000002,0.29999999999999999,284.27766666666673
2014-09-24,05:30,267.229,283.46233333333345,95705.133333333331,85.330333333333343,-2.4483333333333328,-9999.0,0.95200000000000007,-2.4206666666666670,0.12500000000000000,3.5766666666666662,150.49000000000004,0.29999999999999999,284.22566666666665
2014-09-24,06:00,267.249,283.86900000000003,95724.766666666663,83.217000000000013,-2.3340000000000001,-9999.0,5.2059999999999995,12.471666666666666,14.307000000000000,3.8966666666666665,145.88900000000001,0.29999999999999999,284.18766666666664
2014-09-24,06:30,267.270,284.05133333333350,95741.766666666663,82.005000000000010,-3.1413333333333338,-9999.0,12.842333333333331,46.767000000000003,69.969999999999999,3.7466666666666670,151.61099999999999,0.29999999999999999,284.18500000000000
2014-09-24,07:00,267.291,283.97233333333338,95750.000000000000,81.989333333333335,-1.7273333333333334,-9999.0,10.029333333333334,50.107666666666667,100.51666666666667,3.9900000000000002,148.52233333333334,0.29999999999999999,284.22833333333330
2014-09-24,07:30,267.312,284.22299999999996,95760.133333333331,80.424666666666653,-1.3970000000000000,-9999.0,19.921666666666667,104.08633333333333,207.21500000000000,4.2300000000000004,151.17800000000000,0.29999999999999999,284.27800000000008
2014-09-24,08:00,267.333,284.66333333333324,95776.800000000003,78.877333333333326,-1.5036666666666665,-9999.0,32.199333333333328,170.69566666666665,334.89733333333334,4.5666666666666664,156.64300000000000,0.29999999999999999,284.35566666666665
2014-09-24,08:30,267.354,285.93099999999998,95778.766666666663,74.105666666666679,-0.43066666666666664,-9999.0,85.400000000000020,450.40466666666669,847.28666666666629,4.8333333333333321,152.33366666666663,0.29999999999999999,284.48366666666675
2014-09-24,09:00,267.374,287.98033333333331,95772.366666666669,67.067000000000021,-1.5469999999999999,-9999.0,78.257666666666665,422.49399999999997,799.29366666666681,4.6700000000000008,159.46666666666667,0.29999999999999999,284.78133333333341
2014-09-24,09:30,267.395,288.65433333333323,95753.433333333334,64.924333333333337,-1.7309999999999997,-9999.0,71.489333333333349,399.83433333333335,780.45900000000006,4.8166666666666673,152.74366666666666,0.29999999999999999,285.10166666666663
2014-09-24,10:00,267.416,289.52333333333337,95748.666666666672,61.193999999999996,-2.2466666666666670,-9999.0,93.712333333333333,527.87466666666671,1034.6966666666665,4.7733333333333325,149.46666666666667,0.29999999999999999,285.35766666666672
2014-09-24,10:30,267.437,290.09666666666664,95753.000000000000,57.921666666666667,-2.0176666666666665,-9999.0,61.549666666666674,352.95899999999995,709.50599999999974,4.8966666666666665,158.61200000000002,0.29999999999999999,285.60500000000013
2014-09-24,11:00,267.458,290.58200000000005,95750.000000000000,56.380666666666663,-1.0410000000000001,-9999.0,75.981333333333325,428.52766666666662,854.88866666666661,5.2533333333333321,155.43300000000002,0.29999999999999999,285.84866666666665
2014-09-24,11:30,267.479,290.92833333333340,95737.899999999994,54.130333333333333,-0.93066666666666664,-9999.0,78.369333333333330,448.57933333333330,910.76966666666669,5.3666666666666680,159.67866666666669,0.29999999999999999,286.10800000000006
2014-09-24,12:00,267.499,291.37166666666673,95714.699999999997,52.804666666666670,-1.2209999999999999,-9999.0,77.067999999999998,444.93733333333324,897.54166666666674,5.0600000000000005,162.63299999999998,0.29999999999999999,286.35599999999999
2014-09-24,12:30,267.520,291.67366666666669,95680.933333333334,49.434666666666665,0.46466666666666667,-9999.0,89.653999999999996,511.52033333333333,1054.0389999999998,5.1766666666666667,175.00033333333334,0.29999999999999999,286.52633333333341
2014-09-24,13:00,267.541,292.96133333333341,95648.533333333340,43.947999999999986,-0.38266666666666677,-9999.0,123.38466666666669,706.83033333333321,1453.2213333333332,6.5133333333333336,173.65633333333335,0.29999999999999999,286.80933333333337
2014-09-24,13:30,267.562,292.85866666666664,95637.600000000006,44.552666666666674,-1.6653333333333333,-9999.0,74.182999999999993,428.08566666666678,892.95899999999995,6.3566666666666656,174.92233333333334,0.29999999999999999,287.03333333333347
2014-09-24,14:00,267.583,292.54366666666670,95638.833333333328,44.743333333333332,-0.12133333333333327,-9999.0,92.553666666666672,511.06333333333339,1050.0770000000002,7.2133333333333338,153.00033333333337,0.29999999999999999,287.05600000000010
2014-09-24,14:30,267.604,292.51766666666657,95602.333333333328,44.705999999999996,-2.2120000000000006,-9999.0,63.783666666666676,358.60400000000004,734.43800000000010,6.2166666666666668,154.98900000000000,0.29999999999999999,287.33733333333333
2014-09-24,15:00,267.624,291.69433333333347,95622.899999999994,47.658666666666662,-1.8359999999999999,-9999.0,28.619333333333330,161.10766666666666,331.52566666666661,5.6533333333333333,163.27766666666668,0.29733333333333317,287.31900000000007
2014-09-24,15:30,267.645,291.07433333333336,95644.033333333340,51.192666666666668,-1.5126666666666664,-9999.0,20.111333333333331,112.63266666666664,240.05499999999998,4.8633333333333333,177.51133333333334,0.28999999999999992,287.16466666666668
2014-09-24,16:00,267.666,290.66000000000008,95640.666666666672,54.057999999999986,-1.5413333333333332,-9999.0,16.785666666666668,91.693333333333328,193.58700000000005,4.1633333333333331,173.86633333333333,0.29799999999999999,287.05100000000004
2014-09-24,16:30,267.687,290.15666666666669,95639.100000000006,57.699999999999996,-1.8486666666666667,-9999.0,9.8156666666666688,52.634666666666668,111.78199999999998,3.4399999999999999,167.45566666666667,0.29933333333333328,286.95266666666669
2014-09-24,17:00,267.708,289.69300000000004,95643.800000000003,61.484333333333325,-2.4443333333333332,-9999.0,4.9099999999999993,25.170666666666662,55.708666666666659,2.6566666666666667,146.84466666666668,0.28999999999999992,286.86333333333340
2014-09-24,17:30,267.729,289.25566666666680,95654.366666666669,64.544333333333327,-2.4990000000000006,-9999.0,2.8023333333333320,13.089666666666666,30.809000000000001,3.2866666666666666,140.02233333333334,0.28999999999999992,286.74733333333342
2014-09-24,18:00,267.749,288.88466666666670,95641.000000000000,66.848666666666659,-2.2463333333333328,-9999.0,1.2486666666666664,3.3596666666666666,11.141333333333336,3.6166666666666671,136.27799999999999,0.28999999999999992,286.62400000000002
2014-09-24,18:30,267.770,288.56533333333340,95630.566666666666,68.803666666666672,-1.8356666666666668,-9999.0,0.45566666666666661,-1.4590000000000005,0.48933333333333329,3.9566666666666657,134.46600000000001,0.28999999999999992,286.50800000000004
2014-09-24,19:00,267.791,288.36699999999996,95644.000000000000,70.775000000000006,-1.4213333333333333,-9999.0,0.32066666666666671,-1.5533333333333332,0.0000000000000000,4.1400000000000006,145.21066666666667,0.28999999999999992,286.40199999999999
2014-09-24,19:30,267.812,288.14433333333335,95663.600000000006,72.304666666666662,-0.99133333333333351,-9999.0,0.29833333333333323,-1.3583333333333332,0.0000000000000000,4.4166666666666670,150.45533333333333,0.28999999999999992,286.32099999999997
2014-09-24,20:00,267.833,287.91233333333338,95669.800000000003,73.710666666666654,-0.63633333333333331,-9999.0,0.38600000000000001,-1.7283333333333337,0.0000000000000000,5.2133333333333338,160.18866666666665,0.28999999999999992,286.26833333333343
2014-09-24,20:30,267.854,287.37033333333335,95670.466666666660,71.179000000000016,-0.75966666666666671,-9999.0,0.39566666666666667,-2.4523333333333333,0.0000000000000000,4.9966666666666661,163.42233333333334,0.28999999999999992,286.21433333333334
2014-09-24,21:00,267.874,285.98200000000003,95659.533333333340,81.591000000000022,-0.19699999999999998,-3.5063636363636372,1.1730000000000003,-3.4226666666666663,0.0000000000000000,4.4366666666666674,151.31066666666666,0.28999999999999992,286.12766666666664
2014-09-24,21:30,267.895,285.43533333333340,95650.533333333340,90.344666666666654,0.46699999999999992,-1.0503333333333331,1.0776666666666663,-1.0046666666666664,0.0000000000000000,3.9499999999999997,151.38866666666667,0.28999999999999992,285.98599999999999
2014-09-24,22:00,267.916,285.44333333333321,95647.466666666660,91.466333333333310,0.27433333333333343,-0.68600000000000017,0.90399999999999991,-1.2490000000000001,0.0000000000000000,4.3500000000000005,166.14399999999998,0.28999999999999992,285.87299999999999
2014-09-24,22:30,267.937,285.53433333333345,95632.666666666672,91.551666666666662,0.14566666666666664,-0.73666666666666658,0.91833333333333311,-1.2563333333333333,0.0000000000000000,3.3766666666666656,166.76633333333334,0.28999999999999992,285.80300000000005
2014-09-24,23:00,267.958,285.61566666666681,95653.833333333328,90.624333333333354,-9.53333333333333671E-002,-0.52133333333333332,0.70099999999999996,-1.2783333333333333,0.0000000000000000,3.2033333333333345,160.70033333333333,0.28999999999999992,285.76033333333339
2014-09-24,23:30,267.979,285.56000000000017,95663.966666666660,91.627333333333354,-1.96666666666666691E-002,-0.44566666666666666,0.51133333333333331,-0.94266666666666632,0.0000000000000000,3.0366666666666675,175.26733333333334,0.28999999999999992,285.72800000000007
2014-09-25,00:00,268.000,285.60433333333327,95665.633333333331,89.520999999999987,-0.27300000000000002,-0.70366666666666666,0.62566666666666670,-1.2653333333333334,0.0000000000000000,3.1433333333333331,169.45499999999996,0.28999999999999992,285.70200000000000
